#timestamp,LO_Frequency,Hit,StdDev 
1622941215.1,286047004.9,N
1622941216.0,286047004.9,N
1622941235.8,286047010.8,N
1622941255.6,286047011.5,N
1622941275.5,286047014.7,N
1622941295.3,286047012.6,N
1622941315.1,286047012.8,N
1622941335.9,286047013.3,N
1622941355.7,286047014.4,N
1622941375.6,286047016.6,N
1622941395.4,286047016.9,N
1622941415.2,286047018.5,N
1622941435.1,286047017.8,N
1622941436.0,286047017.8,N
1622941455.8,286047016.0,N
1622941475.6,286047017.9,N
1622941495.5,286047019.9,N
1622941515.3,286047016.1,N
1622941535.2,286047019.4,N
1622941555.9,286047018.9,N
1622941575.7,286047021.5,N
1622941595.6,286047019.2,N
1622941615.4,286047019.2,N
1622941635.3,286047020.2,N
1622941655.1,286047022.0,N
1622941656.0,286047022.0,N
1622941675.8,286047019.3,N
1622941695.7,286047023.3,Y
1622941715.5,286047007.8,P
1622941735.3,286047011.4,P
1622941755.2,286047010.2,P
1622941775.0,286047012.0,Y
1622941775.9,286047012.0,P
1622941795.8,286046998.6,N
1622941815.6,286046999.7,N
1622941835.4,286046998.6,N
1622941855.3,286046998.1,N
1622941875.1,286046998.1,N
1622941895.9,286046999.7,N
1622941915.7,286047004.0,N
1622941935.5,286047005.8,N
1622941955.4,286047008.0,N
1622941975.2,286047009.0,N
1622941995.0,286047005.5,N
1622941995.9,286047005.5,N
1622942045.8,286047006.6,E
1622942055.7,286047003.6,N
1622942075.6,286047000.5,P
1622942095.4,286046998.8,N
1622942115.3,286046998.7,N
1622942135.1,286047000.2,N
1622942136.0,286047000.2,N
1622942155.8,286046998.4,N
1622942175.7,286046998.3,N
1622942195.5,286046997.7,N
1622942215.3,286046995.0,N
1622942235.2,286046997.4,N
1622942255.0,286046995.3,N
1622942255.9,286046995.3,N
1622942275.8,286047001.2,N
1622942295.6,286047000.5,N
1622942315.4,286047000.3,N
1622942335.3,286047004.3,N
1622942355.1,286047003.8,N
1622942375.8,286047001.3,N
1622942395.7,286047001.4,N
1622942415.5,286047003.0,N
1622942435.4,286047007.4,N
1622942455.2,286047007.3,N
1622942475.1,286047007.4,N
1622942476.0,286047007.4,N
1622942495.8,286047010.2,N
1622942515.6,286047009.4,N
1622942535.5,286047009.5,N
1622942555.3,286047010.4,N
1622942575.1,286047010.2,N
1622942595.9,286047010.1,N
1622942615.7,286047008.5,N
1622942635.6,286047010.4,N
1622942655.4,286047009.6,N
1622942675.2,286047012.0,N
1622942695.1,286047013.7,N
1622942696.0,286047013.7,N
1622942715.8,286047011.2,N
1622942735.7,286047011.7,N
1622942755.5,286047006.4,N
1622942775.3,286047004.5,N
1622942795.2,286047003.7,N
1622942815.0,286047006.0,N
1622942815.9,286047006.0,N
1622942835.8,286047009.3,N
1622942855.6,286047009.8,N
1622942875.4,286047006.2,N
1622942895.3,286047004.8,N
1622942915.1,286047003.8,N
1622942935.8,286047002.1,N
1622942955.7,286047002.1,N
1622942975.5,286047004.7,N
1622942995.4,286047007.9,N
1622943015.2,286047010.5,Y
1622943035.0,286047002.4,P
1622943035.9,286047002.4,N
1622943055.8,286047000.2,N
1622943075.6,286046998.5,N
1622943095.5,286046998.8,N
1622943115.3,286046999.1,N
1622943135.1,286046997.1,N
1622943155.9,286046994.7,N
1622943175.7,286046993.0,N
1622943195.5,286046992.2,N
1622943215.4,286046991.9,N
1622943235.2,286046994.2,N
1622943255.1,286046991.5,N
1622943256.0,286046991.5,N
1622943275.8,286046989.1,N
1622943295.6,286046986.3,N
1622943315.5,286046984.7,N
1622943335.3,286046982.3,Y
1622943355.2,286046985.9,P
1622943375.9,286046988.2,N
1622943395.7,286046992.3,N
1622943415.6,286046992.4,N
1622943435.4,286046992.1,N
1622943455.2,286046993.6,N
1622943475.1,286046994.8,N
1622943476.0,286046994.8,N
1622943495.8,286046999.1,N
1622943515.7,286046998.9,N
1622943535.5,286046999.4,N
1622943555.3,286046998.7,N
1622943575.2,286046999.6,N
1622943595.0,286046997.3,N
1622943595.9,286046997.3,N
1622943615.7,286046996.2,N
1622943635.6,286046993.5,N
1622943655.4,286046995.1,N
1622943675.3,286046995.8,N
1622943695.1,286046995.5,N
1622943715.8,286046991.7,N
1622943735.7,286046991.6,N
1622943755.5,286046987.7,Y
1622943775.4,286046993.4,P
1622943795.2,286046993.3,P
1622943815.0,286046994.0,P
1622943815.9,286046994.0,Y
1622943835.8,286047001.1,P
1622943855.6,286046999.1,N
1622943875.5,286046998.3,N
1622943895.3,286047002.7,N
1622943915.1,286047002.5,N
1622943935.9,286047005.9,N
1622943955.7,286047000.6,N
1622943975.5,286046999.5,N
1622943995.4,286046998.0,N
1622944015.2,286046998.4,N
1622944035.1,286046997.2,N
1622944036.0,286046997.2,N
1622944055.8,286046997.8,N
1622944075.6,286046997.4,N
1622944095.5,286046999.3,N
1622944115.3,286047000.9,N
1622944135.2,286047004.1,N
1622944185.9,286047002.8,E
1622944195.8,286046999.7,N
1622944215.7,286046995.1,P
1622944235.5,286046996.1,N
1622944255.4,286046994.9,N
1622944275.2,286046992.0,Y
1622944295.0,286046998.6,P
1622944295.9,286046998.6,N
1622944315.8,286047000.2,N
1622944335.6,286046999.0,N
1622944355.5,286046995.5,Y
1622944375.3,286046994.5,P
1622944395.1,286046988.6,P
1622944415.9,286046991.4,N
1622944435.7,286046994.6,N
1622944455.5,286046993.1,N
1622944475.4,286046990.6,Y
1622944495.2,286046998.3,P
1622944515.1,286046995.2,N
1622944516.0,286046995.2,N
1622944535.8,286046995.2,N
1622944555.6,286046995.8,N
1622944575.5,286046998.7,N
1622944595.3,286047000.6,N
1622944615.2,286046996.8,N
1622944635.9,286046997.6,N
1622944655.7,286046997.1,N
1622944675.6,286046993.8,Y
1622944695.4,286046995.5,P
1622944715.2,286046995.3,P
1622944735.1,286046995.9,P
1622944736.0,286046995.9,Y
1622944755.8,286046998.8,P
1622944775.7,286047000.7,N
1622944795.5,286047001.5,N
